Year,Month,Day,Hour,Minute,Value (Times are PST for temperature in C)
2018,08,09,00,00,21.30
2018,08,09,00,01,21.30
2018,08,09,00,02,21.30
2018,08,09,00,03,21.30
2018,08,09,00,04,21.30
2018,08,09,00,05,21.20
2018,08,09,00,06,21.20
2018,08,09,00,07,21.20
2018,08,09,00,08,21.20
2018,08,09,00,09,21.20
2018,08,09,00,10,21.20
2018,08,09,00,11,21.20
2018,08,09,00,12,21.20
2018,08,09,00,13,21.20
2018,08,09,00,14,21.20
2018,08,09,00,15,21.20
2018,08,09,00,16,21.20
2018,08,09,00,17,21.20
2018,08,09,00,18,21.20
2018,08,09,00,19,21.20
2018,08,09,00,20,21.20
2018,08,09,00,21,21.10
2018,08,09,00,22,21.10
2018,08,09,00,23,21.10
2018,08,09,00,24,21.10
2018,08,09,00,25,21.10
2018,08,09,00,26,21.10
2018,08,09,00,27,21.10
2018,08,09,00,28,21.10
2018,08,09,00,29,21.10
2018,08,09,00,30,21.10
2018,08,09,00,31,21.00
2018,08,09,00,32,21.00
2018,08,09,00,33,21.00
2018,08,09,00,34,21.00
2018,08,09,00,35,21.00
2018,08,09,00,36,21.00
2018,08,09,00,37,21.00
2018,08,09,00,38,21.00
2018,08,09,00,39,21.00
2018,08,09,00,40,21.00
2018,08,09,00,41,21.10
2018,08,09,00,42,21.10
2018,08,09,00,43,21.10
2018,08,09,00,44,21.20
2018,08,09,00,45,21.20
2018,08,09,00,46,21.20
2018,08,09,00,47,21.20
2018,08,09,00,48,21.30
2018,08,09,00,49,21.30
2018,08,09,00,50,21.30
2018,08,09,00,51,21.30
2018,08,09,00,52,21.20
2018,08,09,00,53,21.20
2018,08,09,00,54,21.20
2018,08,09,00,55,21.20
2018,08,09,00,56,21.20
2018,08,09,00,57,21.20
2018,08,09,00,58,21.20
2018,08,09,00,59,21.30
2018,08,09,01,00,21.30
2018,08,09,01,01,21.30
2018,08,09,01,02,21.30
2018,08,09,01,03,21.30
2018,08,09,01,04,21.30
2018,08,09,01,05,21.20
2018,08,09,01,06,21.20
2018,08,09,01,07,21.20
2018,08,09,01,08,21.20
2018,08,09,01,09,21.30
2018,08,09,01,10,21.30
2018,08,09,01,11,21.30
2018,08,09,01,12,21.30
2018,08,09,01,13,21.30
2018,08,09,01,14,21.30
2018,08,09,01,15,21.30
2018,08,09,01,16,21.30
2018,08,09,01,17,21.40
2018,08,09,01,18,21.40
2018,08,09,01,19,21.40
2018,08,09,01,20,21.40
2018,08,09,01,21,21.40
2018,08,09,01,22,21.40
2018,08,09,01,23,21.40
2018,08,09,01,24,21.30
2018,08,09,01,25,21.30
2018,08,09,01,26,21.30
2018,08,09,01,27,21.30
2018,08,09,01,28,21.20
2018,08,09,01,29,21.20
2018,08,09,01,30,21.20
2018,08,09,01,31,21.20
2018,08,09,01,32,21.20
2018,08,09,01,33,21.10
2018,08,09,01,34,21.10
2018,08,09,01,35,21.10
2018,08,09,01,36,21.00
2018,08,09,01,37,21.00
2018,08,09,01,38,20.90
2018,08,09,01,39,20.90
2018,08,09,01,40,20.90
2018,08,09,01,41,20.80
2018,08,09,01,42,20.80
2018,08,09,01,43,20.80
2018,08,09,01,44,20.80
2018,08,09,01,45,20.70
2018,08,09,01,46,20.70
2018,08,09,01,47,20.60
2018,08,09,01,48,20.60
2018,08,09,01,49,20.60
2018,08,09,01,50,20.50
2018,08,09,01,51,20.50
2018,08,09,01,52,20.40
2018,08,09,01,53,20.40
2018,08,09,01,54,20.40
2018,08,09,01,55,20.30
2018,08,09,01,56,20.30
2018,08,09,01,57,20.30
2018,08,09,01,58,20.20
2018,08,09,01,59,20.20
2018,08,09,02,00,20.20
2018,08,09,02,01,20.20
2018,08,09,02,02,20.20
2018,08,09,02,03,20.10
2018,08,09,02,04,20.10
2018,08,09,02,05,20.10
2018,08,09,02,06,20.10
2018,08,09,02,07,20.00
2018,08,09,02,08,20.00
2018,08,09,02,09,20.00
2018,08,09,02,10,19.90
2018,08,09,02,11,19.90
2018,08,09,02,12,19.80
2018,08,09,02,13,19.80
2018,08,09,02,14,19.80
2018,08,09,02,15,19.70
2018,08,09,02,16,19.70
2018,08,09,02,17,19.70
2018,08,09,02,18,19.70
2018,08,09,02,19,19.60
2018,08,09,02,20,19.60
2018,08,09,02,21,19.60
2018,08,09,02,22,19.60
2018,08,09,02,23,19.60
2018,08,09,02,24,19.60
2018,08,09,02,25,19.50
2018,08,09,02,26,19.50
2018,08,09,02,27,19.50
2018,08,09,02,28,19.40
2018,08,09,02,29,19.40
2018,08,09,02,30,19.40
2018,08,09,02,31,19.40
2018,08,09,02,32,19.40
2018,08,09,02,33,19.30
2018,08,09,02,34,19.30
2018,08,09,02,35,19.30
2018,08,09,02,36,19.30
2018,08,09,02,37,19.30
2018,08,09,02,38,19.30
2018,08,09,02,39,19.20
2018,08,09,02,40,19.20
2018,08,09,02,41,19.20
2018,08,09,02,42,19.20
2018,08,09,02,43,19.20
2018,08,09,02,44,19.20
2018,08,09,02,45,19.20
2018,08,09,02,46,19.20
2018,08,09,02,47,19.20
2018,08,09,02,48,19.20
2018,08,09,02,49,19.20
2018,08,09,02,50,19.20
2018,08,09,02,51,19.20
2018,08,09,02,52,19.20
2018,08,09,02,53,19.20
2018,08,09,02,54,19.20
2018,08,09,02,55,19.20
2018,08,09,02,56,19.20
2018,08,09,02,57,19.20
2018,08,09,02,58,19.30
2018,08,09,02,59,19.30
2018,08,09,03,00,19.30
2018,08,09,03,01,19.30
2018,08,09,03,02,19.30
2018,08,09,03,03,19.30
2018,08,09,03,04,19.30
2018,08,09,03,05,19.30
2018,08,09,03,06,19.30
2018,08,09,03,07,19.30
2018,08,09,03,08,19.30
2018,08,09,03,09,19.30
2018,08,09,03,10,19.30
2018,08,09,03,11,19.20
2018,08,09,03,12,19.20
2018,08,09,03,13,19.20
2018,08,09,03,14,19.20
2018,08,09,03,15,19.10
2018,08,09,03,16,19.10
2018,08,09,03,17,19.10
2018,08,09,03,18,19.10
2018,08,09,03,19,19.00
2018,08,09,03,20,19.00
2018,08,09,03,21,19.00
2018,08,09,03,22,18.90
2018,08,09,03,23,18.90
2018,08,09,03,24,18.90
2018,08,09,03,25,18.90
2018,08,09,03,26,18.90
2018,08,09,03,27,18.90
2018,08,09,03,28,18.90
2018,08,09,03,29,18.80
2018,08,09,03,30,18.80
2018,08,09,03,31,18.80
2018,08,09,03,32,18.80
2018,08,09,03,33,18.80
2018,08,09,03,34,18.80
2018,08,09,03,35,18.70
2018,08,09,03,36,18.70
2018,08,09,03,37,18.70
2018,08,09,03,38,18.70
2018,08,09,03,39,18.70
2018,08,09,03,40,18.70
2018,08,09,03,41,18.70
2018,08,09,03,42,18.60
2018,08,09,03,43,18.60
2018,08,09,03,44,18.60
2018,08,09,03,45,18.50
2018,08,09,03,46,18.50
2018,08,09,03,47,18.40
2018,08,09,03,48,18.40
2018,08,09,03,49,18.40
2018,08,09,03,50,18.40
2018,08,09,03,51,18.30
2018,08,09,03,52,18.30
2018,08,09,03,53,18.30
2018,08,09,03,54,18.30
2018,08,09,03,55,18.30
2018,08,09,03,56,18.30
2018,08,09,03,57,18.30
2018,08,09,03,58,18.30
2018,08,09,03,59,18.30
2018,08,09,04,00,18.30
2018,08,09,04,01,18.30
2018,08,09,04,02,18.30
2018,08,09,04,03,18.30
2018,08,09,04,04,18.20
2018,08,09,04,05,18.20
2018,08,09,04,06,18.20
2018,08,09,04,07,18.20
2018,08,09,04,08,18.20
2018,08,09,04,09,18.20
2018,08,09,04,10,18.10
2018,08,09,04,11,18.10
2018,08,09,04,12,18.10
2018,08,09,04,13,18.00
2018,08,09,04,14,17.90
2018,08,09,04,15,17.90
2018,08,09,04,16,17.90
2018,08,09,04,17,17.90
2018,08,09,04,18,17.90
2018,08,09,04,19,17.80
2018,08,09,04,20,17.70
2018,08,09,04,21,17.60
2018,08,09,04,22,17.40
2018,08,09,04,23,17.30
2018,08,09,04,24,17.20
2018,08,09,04,25,17.10
2018,08,09,04,26,17.00
2018,08,09,04,27,16.90
2018,08,09,04,28,16.90
2018,08,09,04,29,16.80
2018,08,09,04,30,16.70
2018,08,09,04,31,16.70
2018,08,09,04,32,16.70
2018,08,09,04,33,16.60
2018,08,09,04,34,16.60
2018,08,09,04,35,16.60
2018,08,09,04,36,16.50
2018,08,09,04,37,16.40
2018,08,09,04,38,16.40
2018,08,09,04,39,16.30
2018,08,09,04,40,16.30
2018,08,09,04,41,16.20
2018,08,09,04,42,16.10
2018,08,09,04,43,16.00
2018,08,09,04,44,15.90
2018,08,09,04,45,15.90
2018,08,09,04,46,15.80
2018,08,09,04,47,15.70
2018,08,09,04,48,15.60
2018,08,09,04,49,15.50
2018,08,09,04,50,15.50
2018,08,09,04,51,15.40
2018,08,09,04,52,15.30
2018,08,09,04,53,15.30
2018,08,09,04,54,15.20
2018,08,09,04,55,15.10
2018,08,09,04,56,15.10
2018,08,09,04,57,15.00
2018,08,09,04,58,14.90
2018,08,09,04,59,14.90
2018,08,09,05,00,14.80
2018,08,09,05,01,14.80
2018,08,09,05,02,14.70
2018,08,09,05,03,14.70
2018,08,09,05,04,14.60
2018,08,09,05,05,14.50
2018,08,09,05,06,14.50
2018,08,09,05,07,14.40
2018,08,09,05,08,14.40
2018,08,09,05,09,14.40
2018,08,09,05,10,14.40
2018,08,09,05,11,14.30
2018,08,09,05,12,14.30
2018,08,09,05,13,14.30
2018,08,09,05,14,14.30
2018,08,09,05,15,14.30
2018,08,09,05,16,14.30
2018,08,09,05,17,14.30
2018,08,09,05,18,14.30
2018,08,09,05,19,14.30
2018,08,09,05,20,14.20
2018,08,09,05,21,14.20
2018,08,09,05,22,14.20
2018,08,09,05,23,14.20
2018,08,09,05,24,14.20
2018,08,09,05,25,14.20
2018,08,09,05,26,14.20
2018,08,09,05,27,14.20
2018,08,09,05,28,14.20
2018,08,09,05,29,14.20
2018,08,09,05,30,14.20
2018,08,09,05,31,14.20
2018,08,09,05,32,14.20
2018,08,09,05,33,14.20
2018,08,09,05,34,14.20
2018,08,09,05,35,14.20
2018,08,09,05,36,14.30
2018,08,09,05,37,14.30
2018,08,09,05,38,14.30
2018,08,09,05,39,14.30
2018,08,09,05,40,14.30
2018,08,09,05,41,14.30
2018,08,09,05,42,14.30
2018,08,09,05,43,14.30
2018,08,09,05,44,14.30
2018,08,09,05,45,14.30
2018,08,09,05,46,14.30
2018,08,09,05,47,14.30
2018,08,09,05,48,14.30
2018,08,09,05,49,14.30
2018,08,09,05,50,14.40
2018,08,09,05,51,14.40
2018,08,09,05,52,14.40
2018,08,09,05,53,14.40
2018,08,09,05,54,14.40
2018,08,09,05,55,14.50
2018,08,09,05,56,14.50
2018,08,09,05,57,14.50
2018,08,09,05,58,14.50
2018,08,09,05,59,14.50
2018,08,09,06,00,14.60
2018,08,09,06,01,14.60
2018,08,09,06,02,14.60
2018,08,09,06,03,14.60
2018,08,09,06,04,14.60
2018,08,09,06,05,14.60
2018,08,09,06,06,14.60
2018,08,09,06,07,14.60
2018,08,09,06,08,14.60
2018,08,09,06,09,14.60
2018,08,09,06,10,14.60
2018,08,09,06,11,14.60
2018,08,09,06,12,14.60
2018,08,09,06,13,14.60
2018,08,09,06,14,14.60
2018,08,09,06,15,14.60
2018,08,09,06,16,14.60
2018,08,09,06,17,14.60
2018,08,09,06,18,14.60
2018,08,09,06,19,14.60
2018,08,09,06,20,14.60
2018,08,09,06,21,14.60
2018,08,09,06,22,14.60
2018,08,09,06,23,14.60
2018,08,09,06,24,14.60
2018,08,09,06,25,14.60
2018,08,09,06,26,14.60
2018,08,09,06,27,14.60
2018,08,09,06,28,14.60
2018,08,09,06,29,14.60
2018,08,09,06,30,14.60
2018,08,09,06,31,14.60
2018,08,09,06,32,14.60
2018,08,09,06,33,14.60
2018,08,09,06,34,14.60
2018,08,09,06,35,14.60
2018,08,09,06,36,14.60
2018,08,09,06,37,14.60
2018,08,09,06,38,14.60
2018,08,09,06,39,14.60
2018,08,09,06,40,14.60
2018,08,09,06,41,14.60
2018,08,09,06,42,14.60
2018,08,09,06,43,14.70
2018,08,09,06,44,14.70
2018,08,09,06,45,14.70
2018,08,09,06,46,14.70
2018,08,09,06,47,14.70
2018,08,09,06,48,14.70
2018,08,09,06,49,14.70
2018,08,09,06,50,14.70
2018,08,09,06,51,14.70
2018,08,09,06,52,14.70
2018,08,09,06,53,14.70
2018,08,09,06,54,14.80
2018,08,09,06,55,14.80
2018,08,09,06,56,14.80
2018,08,09,06,57,14.80
2018,08,09,06,58,14.80
2018,08,09,06,59,14.80
2018,08,09,07,00,14.80
2018,08,09,07,01,14.90
2018,08,09,07,02,14.90
2018,08,09,07,03,14.90
2018,08,09,07,04,14.90
2018,08,09,07,05,14.90
2018,08,09,07,06,14.90
2018,08,09,07,07,15.00
2018,08,09,07,08,15.00
2018,08,09,07,09,15.00
2018,08,09,07,10,15.00
2018,08,09,07,11,15.10
2018,08,09,07,12,15.10
2018,08,09,07,13,15.10
2018,08,09,07,14,15.10
2018,08,09,07,15,15.20
2018,08,09,07,16,15.20
2018,08,09,07,17,15.20
2018,08,09,07,18,15.20
2018,08,09,07,19,15.20
2018,08,09,07,20,15.30
2018,08,09,07,21,15.30
2018,08,09,07,22,15.30
2018,08,09,07,23,15.30
2018,08,09,07,24,15.30
2018,08,09,07,25,15.30
2018,08,09,07,26,15.30
2018,08,09,07,27,15.30
2018,08,09,07,28,15.30
2018,08,09,07,29,15.40
2018,08,09,07,30,15.40
2018,08,09,07,31,15.40
2018,08,09,07,32,15.40
2018,08,09,07,33,15.40
2018,08,09,07,34,15.50
2018,08,09,07,35,15.50
2018,08,09,07,36,15.50
2018,08,09,07,37,15.50
2018,08,09,07,38,15.60
2018,08,09,07,39,15.60
2018,08,09,07,40,15.60
2018,08,09,07,41,15.70
2018,08,09,07,42,15.70
2018,08,09,07,43,15.70
2018,08,09,07,44,15.70
2018,08,09,07,45,15.70
2018,08,09,07,46,15.80
2018,08,09,07,47,15.80
2018,08,09,07,48,15.80
2018,08,09,07,49,15.80
2018,08,09,07,50,15.80
2018,08,09,07,51,15.80
2018,08,09,07,52,15.80
2018,08,09,07,53,15.80
2018,08,09,07,54,15.80
2018,08,09,07,55,15.80
2018,08,09,07,56,15.90
2018,08,09,07,57,15.90
2018,08,09,07,58,15.90
2018,08,09,07,59,15.90
2018,08,09,08,00,16.00
2018,08,09,08,01,16.00
2018,08,09,08,02,16.10
2018,08,09,08,03,16.10
2018,08,09,08,04,16.10
2018,08,09,08,05,16.20
2018,08,09,08,06,16.20
2018,08,09,08,07,16.30
2018,08,09,08,08,16.30
2018,08,09,08,09,16.40
2018,08,09,08,10,16.40
2018,08,09,08,11,16.50
2018,08,09,08,12,16.60
2018,08,09,08,13,16.60
2018,08,09,08,14,16.70
2018,08,09,08,15,16.70
2018,08,09,08,16,16.70
2018,08,09,08,17,16.70
2018,08,09,08,18,16.80
2018,08,09,08,19,16.80
2018,08,09,08,20,16.90
2018,08,09,08,21,16.90
2018,08,09,08,22,16.90
2018,08,09,08,23,17.00
2018,08,09,08,24,17.00
2018,08,09,08,25,17.00
2018,08,09,08,26,17.10
2018,08,09,08,27,17.10
2018,08,09,08,28,17.20
2018,08,09,08,29,17.20
2018,08,09,08,30,17.30
2018,08,09,08,31,17.30
2018,08,09,08,32,17.30
2018,08,09,08,33,17.40
2018,08,09,08,34,17.40
2018,08,09,08,35,17.50
2018,08,09,08,36,17.50
2018,08,09,08,37,17.50
2018,08,09,08,38,17.60
2018,08,09,08,39,17.60
2018,08,09,08,40,17.60
2018,08,09,08,41,17.60
2018,08,09,08,42,17.60
2018,08,09,08,43,17.60
2018,08,09,08,44,17.70
2018,08,09,08,45,17.70
2018,08,09,08,46,17.70
2018,08,09,08,47,17.70
2018,08,09,08,48,17.80
2018,08,09,08,49,17.90
2018,08,09,08,50,17.90
2018,08,09,08,51,18.00
2018,08,09,08,52,18.10
2018,08,09,08,53,18.10
2018,08,09,08,54,18.10
2018,08,09,08,55,18.20
2018,08,09,08,56,18.20
2018,08,09,08,57,18.20
2018,08,09,08,58,18.20
2018,08,09,08,59,18.20
2018,08,09,09,00,18.20
2018,08,09,09,01,18.20
2018,08,09,09,02,18.30
2018,08,09,09,03,18.30
2018,08,09,09,04,18.40
2018,08,09,09,05,18.50
2018,08,09,09,06,18.50
2018,08,09,09,07,18.60
2018,08,09,09,08,18.60
2018,08,09,09,09,18.70
2018,08,09,09,10,18.80
2018,08,09,09,11,18.80
2018,08,09,09,12,18.90
2018,08,09,09,13,18.90
2018,08,09,09,14,19.00
2018,08,09,09,15,19.10
2018,08,09,09,16,19.10
2018,08,09,09,17,19.20
2018,08,09,09,18,19.20
2018,08,09,09,19,19.30
2018,08,09,09,20,19.30
2018,08,09,09,21,19.30
2018,08,09,09,22,19.40
2018,08,09,09,23,19.40
2018,08,09,09,24,19.40
2018,08,09,09,25,19.40
2018,08,09,09,26,19.50
2018,08,09,09,27,19.50
2018,08,09,09,28,19.60
2018,08,09,09,29,19.60
2018,08,09,09,30,19.70
2018,08,09,09,31,19.70
2018,08,09,09,32,19.80
2018,08,09,09,33,19.80
2018,08,09,09,34,19.80
2018,08,09,09,35,19.80
2018,08,09,09,36,19.90
2018,08,09,09,37,19.90
2018,08,09,09,38,20.00
2018,08,09,09,39,20.10
2018,08,09,09,40,20.10
2018,08,09,09,41,20.20
2018,08,09,09,42,20.30
2018,08,09,09,43,20.40
2018,08,09,09,44,20.40
2018,08,09,09,45,20.50
2018,08,09,09,46,20.60
2018,08,09,09,47,20.70
2018,08,09,09,48,20.80
2018,08,09,09,49,20.80
2018,08,09,09,50,20.80
2018,08,09,09,51,20.90
2018,08,09,09,52,20.90
2018,08,09,09,53,21.00
2018,08,09,09,54,21.00
2018,08,09,09,55,20.90
2018,08,09,09,56,20.90
2018,08,09,09,57,20.80
2018,08,09,09,58,20.70
2018,08,09,09,59,20.60
2018,08,09,10,00,20.50
2018,08,09,10,01,20.50
2018,08,09,10,02,20.40
2018,08,09,10,03,20.30
2018,08,09,10,04,20.30
2018,08,09,10,05,20.30
2018,08,09,10,06,20.30
2018,08,09,10,07,20.20
2018,08,09,10,08,20.10
2018,08,09,10,09,20.10
2018,08,09,10,10,20.10
2018,08,09,10,11,20.00
2018,08,09,10,12,20.00
2018,08,09,10,13,20.10
2018,08,09,10,14,20.10
2018,08,09,10,15,20.10
2018,08,09,10,16,20.10
2018,08,09,10,17,20.10
2018,08,09,10,18,20.10
2018,08,09,10,19,20.10
2018,08,09,10,20,20.10
2018,08,09,10,21,20.10
2018,08,09,10,22,20.10
2018,08,09,10,23,20.10
2018,08,09,10,24,20.10
2018,08,09,10,25,20.00
2018,08,09,10,26,19.90
2018,08,09,10,27,19.80
2018,08,09,10,28,19.70
2018,08,09,10,29,19.70
2018,08,09,10,30,19.70
2018,08,09,10,31,19.60
2018,08,09,10,32,19.60
2018,08,09,10,33,19.50
2018,08,09,10,34,19.40
2018,08,09,10,35,19.30
2018,08,09,10,36,19.30
2018,08,09,10,37,19.30
2018,08,09,10,38,19.30
2018,08,09,10,39,19.40
2018,08,09,10,40,19.40
2018,08,09,10,41,19.40
2018,08,09,10,42,19.40
2018,08,09,10,43,19.40
2018,08,09,10,44,19.50
2018,08,09,10,45,19.50
2018,08,09,10,46,19.60
2018,08,09,10,47,19.70
2018,08,09,10,48,19.70
2018,08,09,10,49,19.70
2018,08,09,10,50,19.80
2018,08,09,10,51,19.80
2018,08,09,10,52,19.90
2018,08,09,10,53,19.90
2018,08,09,10,54,20.00
2018,08,09,10,55,20.10
2018,08,09,10,56,20.20
2018,08,09,10,57,20.30
2018,08,09,10,58,20.40
2018,08,09,10,59,20.60
2018,08,09,11,00,20.60
2018,08,09,11,01,20.60
2018,08,09,11,02,20.70
2018,08,09,11,03,20.70
2018,08,09,11,04,20.70
2018,08,09,11,05,20.80
2018,08,09,11,06,20.80
2018,08,09,11,07,20.80
2018,08,09,11,08,20.80
2018,08,09,11,09,20.80
2018,08,09,11,10,20.90
2018,08,09,11,11,21.00
2018,08,09,11,12,21.00
2018,08,09,11,13,21.10
2018,08,09,11,14,21.10
2018,08,09,11,15,21.20
2018,08,09,11,16,21.20
2018,08,09,11,17,21.30
2018,08,09,11,18,21.30
2018,08,09,11,19,21.40
2018,08,09,11,20,21.50
2018,08,09,11,21,21.60
2018,08,09,11,22,21.70
2018,08,09,11,23,21.70
2018,08,09,11,24,21.80
2018,08,09,11,25,21.90
2018,08,09,11,26,22.00
2018,08,09,11,27,22.10
2018,08,09,11,28,22.20
2018,08,09,11,29,22.30
2018,08,09,11,30,22.30
2018,08,09,11,31,22.40
2018,08,09,11,32,22.50
2018,08,09,11,33,22.60
2018,08,09,11,34,22.60
2018,08,09,11,35,22.60
2018,08,09,11,36,22.60
2018,08,09,11,37,22.60
2018,08,09,11,38,22.70
2018,08,09,11,39,22.70
2018,08,09,11,40,22.60
2018,08,09,11,41,22.50
2018,08,09,11,42,22.50
2018,08,09,11,43,22.40
2018,08,09,11,44,22.30
2018,08,09,11,45,22.30
2018,08,09,11,46,22.40
2018,08,09,11,47,22.40
2018,08,09,11,48,22.50
2018,08,09,11,49,22.60
2018,08,09,11,50,22.70
2018,08,09,11,51,22.80
2018,08,09,11,52,22.90
2018,08,09,11,53,23.00
2018,08,09,11,54,23.10
2018,08,09,11,55,23.10
2018,08,09,11,56,23.30
2018,08,09,11,57,23.30
2018,08,09,11,58,23.30
2018,08,09,11,59,23.30
2018,08,09,12,00,23.40
2018,08,09,12,01,23.40
2018,08,09,12,02,23.40
2018,08,09,12,03,23.40
2018,08,09,12,04,23.40
2018,08,09,12,05,23.40
2018,08,09,12,06,23.40
2018,08,09,12,07,23.30
2018,08,09,12,08,23.20
2018,08,09,12,09,23.20
2018,08,09,12,10,23.10
2018,08,09,12,11,23.10
2018,08,09,12,12,23.00
2018,08,09,12,13,23.10
2018,08,09,12,14,23.10
2018,08,09,12,15,23.10
2018,08,09,12,16,23.00
2018,08,09,12,17,23.00
2018,08,09,12,18,23.00
2018,08,09,12,19,23.00
2018,08,09,12,20,22.90
2018,08,09,12,21,22.90
2018,08,09,12,22,22.90
2018,08,09,12,23,22.90
2018,08,09,12,24,22.90
2018,08,09,12,25,22.80
2018,08,09,12,26,22.80
2018,08,09,12,27,22.90
2018,08,09,12,28,23.00
2018,08,09,12,29,23.00
2018,08,09,12,30,23.10
2018,08,09,12,31,23.10
2018,08,09,12,32,23.20
2018,08,09,12,33,23.30
2018,08,09,12,34,23.30
2018,08,09,12,35,23.40
2018,08,09,12,36,23.40
2018,08,09,12,37,23.50
2018,08,09,12,38,23.60
2018,08,09,12,39,23.70
2018,08,09,12,40,23.70
2018,08,09,12,41,23.80
2018,08,09,12,42,23.90
2018,08,09,12,43,24.00
2018,08,09,12,44,24.10
2018,08,09,12,45,24.10
2018,08,09,12,46,24.10
2018,08,09,12,47,24.10
2018,08,09,12,48,24.10
2018,08,09,12,49,24.20
2018,08,09,12,50,24.10
2018,08,09,12,51,24.10
2018,08,09,12,52,24.20
2018,08,09,12,53,24.30
2018,08,09,12,54,24.40
2018,08,09,12,55,24.40
2018,08,09,12,56,24.40
2018,08,09,12,57,24.40
2018,08,09,12,58,24.40
2018,08,09,12,59,24.40
2018,08,09,13,00,24.30
2018,08,09,13,01,24.20
2018,08,09,13,02,24.10
2018,08,09,13,03,24.00
2018,08,09,13,04,23.90
2018,08,09,13,05,23.90
2018,08,09,13,06,23.90
2018,08,09,13,07,23.90
2018,08,09,13,08,23.90
2018,08,09,13,09,23.80
2018,08,09,13,10,23.70
2018,08,09,13,11,23.70
2018,08,09,13,12,23.60
2018,08,09,13,13,23.60
2018,08,09,13,14,23.70
2018,08,09,13,15,23.70
2018,08,09,13,16,23.80
2018,08,09,13,17,23.80
2018,08,09,13,18,23.80
2018,08,09,13,19,23.90
2018,08,09,13,20,24.00
2018,08,09,13,21,24.00
2018,08,09,13,22,23.90
2018,08,09,13,23,23.80
2018,08,09,13,24,23.90
2018,08,09,13,25,24.00
2018,08,09,13,26,24.10
2018,08,09,13,27,24.20
2018,08,09,13,28,24.20
2018,08,09,13,29,24.30
2018,08,09,13,30,24.30
2018,08,09,13,31,24.30
2018,08,09,13,32,24.30
2018,08,09,13,33,24.40
2018,08,09,13,34,24.40
2018,08,09,13,35,24.40
2018,08,09,13,36,24.50
2018,08,09,13,37,24.50
2018,08,09,13,38,24.50
2018,08,09,13,39,24.50
2018,08,09,13,40,24.50
2018,08,09,13,41,24.50
2018,08,09,13,42,24.60
2018,08,09,13,43,24.60
2018,08,09,13,44,24.60
2018,08,09,13,45,24.60
2018,08,09,13,46,24.50
2018,08,09,13,47,24.40
2018,08,09,13,48,24.30
2018,08,09,13,49,24.20
2018,08,09,13,50,24.10
2018,08,09,13,51,24.00
2018,08,09,13,52,23.90
2018,08,09,13,53,23.70
2018,08,09,13,54,23.60
2018,08,09,13,55,23.50
2018,08,09,13,56,23.40
2018,08,09,13,57,23.40
2018,08,09,13,58,23.40
2018,08,09,13,59,23.40
2018,08,09,14,00,23.50
2018,08,09,14,01,23.40
2018,08,09,14,02,23.40
2018,08,09,14,03,23.40
2018,08,09,14,04,23.40
2018,08,09,14,05,23.40
2018,08,09,14,06,23.50
2018,08,09,14,07,23.60
2018,08,09,14,08,23.70
2018,08,09,14,09,23.70
2018,08,09,14,10,23.80
2018,08,09,14,11,23.80
2018,08,09,14,12,23.90
2018,08,09,14,13,24.10
2018,08,09,14,14,24.20
2018,08,09,14,15,24.30
2018,08,09,14,16,24.40
2018,08,09,14,17,24.50
2018,08,09,14,18,24.60
2018,08,09,14,19,24.80
2018,08,09,14,20,25.00
2018,08,09,14,21,25.20
2018,08,09,14,22,25.30
2018,08,09,14,23,25.50
2018,08,09,14,24,25.60
2018,08,09,14,25,25.70
2018,08,09,14,26,25.80
2018,08,09,14,27,25.90
2018,08,09,14,28,26.10
2018,08,09,14,29,26.20
2018,08,09,14,30,26.30
2018,08,09,14,31,26.30
2018,08,09,14,32,26.50
2018,08,09,14,33,26.60
2018,08,09,14,34,26.70
2018,08,09,14,35,26.80
2018,08,09,14,36,26.90
2018,08,09,14,37,27.00
2018,08,09,14,38,27.00
2018,08,09,14,39,26.90
2018,08,09,14,40,26.90
2018,08,09,14,41,26.80
2018,08,09,14,42,26.70
2018,08,09,14,43,26.70
2018,08,09,14,44,26.60
2018,08,09,14,45,26.60
2018,08,09,14,46,26.60
2018,08,09,14,47,26.60
2018,08,09,14,48,26.60
2018,08,09,14,49,26.60
2018,08,09,14,50,26.70
2018,08,09,14,51,26.80
2018,08,09,14,52,26.80
2018,08,09,14,53,26.80
2018,08,09,14,54,26.80
2018,08,09,14,55,26.80
2018,08,09,14,56,26.80
2018,08,09,14,57,26.80
2018,08,09,14,58,26.80
2018,08,09,14,59,26.90
2018,08,09,15,00,27.00
2018,08,09,15,01,27.00
2018,08,09,15,02,27.00
2018,08,09,15,03,27.10
2018,08,09,15,04,27.10
2018,08,09,15,05,27.10
2018,08,09,15,06,27.20
2018,08,09,15,07,27.20
2018,08,09,15,08,27.20
2018,08,09,15,09,27.30
2018,08,09,15,10,27.30
2018,08,09,15,11,27.40
2018,08,09,15,12,27.50
2018,08,09,15,13,27.60
2018,08,09,15,14,27.80
2018,08,09,15,15,27.90
2018,08,09,15,16,28.00
2018,08,09,15,17,28.10
2018,08,09,15,18,28.20
2018,08,09,15,19,28.20
2018,08,09,15,20,28.30
2018,08,09,15,21,28.30
2018,08,09,15,22,28.40
2018,08,09,15,23,28.40
2018,08,09,15,24,28.50
2018,08,09,15,25,28.60
2018,08,09,15,26,28.70
2018,08,09,15,27,28.70
2018,08,09,15,28,28.80
2018,08,09,15,29,28.80
2018,08,09,15,30,28.80
2018,08,09,15,31,28.80
2018,08,09,15,32,28.70
2018,08,09,15,33,28.60
2018,08,09,15,34,28.60
2018,08,09,15,35,28.60
2018,08,09,15,36,28.60
2018,08,09,15,37,28.60
2018,08,09,15,38,28.70
2018,08,09,15,39,28.70
2018,08,09,15,40,28.80
2018,08,09,15,41,28.80
2018,08,09,15,42,28.80
2018,08,09,15,43,28.80
2018,08,09,15,44,28.80
2018,08,09,15,45,28.80
2018,08,09,15,46,28.70
2018,08,09,15,47,28.70
2018,08,09,15,48,28.60
2018,08,09,15,49,28.50
2018,08,09,15,50,28.50
2018,08,09,15,51,28.50
2018,08,09,15,52,28.50
2018,08,09,15,53,28.50
2018,08,09,15,54,28.50
2018,08,09,15,55,28.50
2018,08,09,15,56,28.60
2018,08,09,15,57,28.60
2018,08,09,15,58,28.50
2018,08,09,15,59,28.50
2018,08,09,16,00,28.50
2018,08,09,16,01,28.50
2018,08,09,16,02,28.50
2018,08,09,16,03,28.50
2018,08,09,16,04,28.40
2018,08,09,16,05,28.40
2018,08,09,16,06,28.40
2018,08,09,16,07,28.30
2018,08,09,16,08,28.30
2018,08,09,16,09,28.30
2018,08,09,16,10,28.40
2018,08,09,16,11,28.40
2018,08,09,16,12,28.60
2018,08,09,16,13,28.60
2018,08,09,16,14,28.60
2018,08,09,16,15,28.60
2018,08,09,16,16,28.60
2018,08,09,16,17,28.50
2018,08,09,16,18,28.40
2018,08,09,16,19,28.40
2018,08,09,16,20,28.40
2018,08,09,16,21,28.30
2018,08,09,16,22,28.30
2018,08,09,16,23,28.30
2018,08,09,16,24,28.20
2018,08,09,16,25,28.20
2018,08,09,16,26,28.20
2018,08,09,16,27,28.20
2018,08,09,16,28,28.20
2018,08,09,16,29,28.20
2018,08,09,16,30,28.20
2018,08,09,16,31,28.20
2018,08,09,16,32,28.20
2018,08,09,16,33,28.20
2018,08,09,16,34,28.20
2018,08,09,16,35,28.30
2018,08,09,16,36,28.40
2018,08,09,16,37,28.40
2018,08,09,16,38,28.50
2018,08,09,16,39,28.50
2018,08,09,16,40,28.50
2018,08,09,16,41,28.50
2018,08,09,16,42,28.40
2018,08,09,16,43,28.40
2018,08,09,16,44,28.40
2018,08,09,16,45,28.40
2018,08,09,16,46,28.40
2018,08,09,16,47,28.40
2018,08,09,16,48,28.30
2018,08,09,16,49,28.30
2018,08,09,16,50,28.30
2018,08,09,16,51,28.20
2018,08,09,16,52,28.20
2018,08,09,16,53,28.10
2018,08,09,16,54,28.10
2018,08,09,16,55,28.10
2018,08,09,16,56,28.10
2018,08,09,16,57,28.10
2018,08,09,16,58,28.00
2018,08,09,16,59,28.00
2018,08,09,17,00,28.00
2018,08,09,17,01,28.00
2018,08,09,17,02,28.10
2018,08,09,17,03,28.10
2018,08,09,17,04,28.10
2018,08,09,17,05,28.10
2018,08,09,17,06,28.10
2018,08,09,17,07,28.10
2018,08,09,17,08,28.10
2018,08,09,17,09,28.00
2018,08,09,17,10,28.00
2018,08,09,17,11,27.90
2018,08,09,17,12,27.80
2018,08,09,17,13,27.70
2018,08,09,17,14,27.70
2018,08,09,17,15,27.70
2018,08,09,17,16,27.70
2018,08,09,17,17,27.70
2018,08,09,17,18,27.70
2018,08,09,17,19,27.70